SL-16 DEB, 39891

Orbit data source: Space-Track

SL-16 DEB, 39891 is space debris in LEO originally from a launch on Fri, 26 Mar 1993 UTC launched from the Tyuratam Missile And Space Complex (TTMTR). Debris objects in space refer to the collection of defunct objects orbiting the Earth. Examples of debris include non-operational satellites, rocket bodies, and fragments generated from explosions, collisions, or faulty payload assembly.

Loading next visibility...
Identifier
39891, 1993-016BR
Orbit
LEO
Country
Flag of CISCIS
Related business
Manufacturer
Unknown
Mission
Spacecraft
Bus & Motor
Unknown
Mass
Unknown
Launch date (UTC)
1993-03-26 (33 years ago)
Launch vehicle
Unknown
Launch site
Tyuratam Missile And Space Complex (TTMTR)
Object type
Payload
Rocket body
Debris
Shape & HBR
Unknown shape, 0.1 m
Radar Cross Section
Small (<0.1 m²)

Expand to show TLE details & history
Last TLE update: 3 weeks ago

TLE from 3 weeks ago
0 SL-16 DEB
1 39891U 93016BR  26020.11324370  .00003392  00000-0  10078-2 0  9995
2 39891  70.9969 187.6362 0007378  73.2188 286.9759 14.43907335608851
Epoch: 2026-01-20T02:43Z
TLE epoch observation values (Epoch: 2026-01-20T02:43:04.255Z)
Latitude
-0.00001°
Longitude
27.36869°
Altitude
746.519 km
Speed
7.483 km/s
True Right ascension
12h 30m 32s
True Declination
0° 00' 00"
Sunlit
Object was in daylight at epoch
Visualization orbit readout
Latitude
Unknown
Longitude
Unknown
Altitude
Unknown
Speed
Unknown
Apparent Right ascension
Unknown
Apparent Declination
Unknown
Sunlit
N/A
Visualization observer readout
Local Sidereal Time
04:30:51
Azimuth
Unknown
Elevation
Unknown
Doppler factor
Unknown
Orbital elements
Apogee altitude
748.769 km
Perigee altitude
738.26 km
Semi-major axis
7,121.652 km
Eccentricity
0.00074
Inclination
70.9969°
RAAN
187.6362°
Arg. of periapsis
73.2188°
True anomaly
286.89502°
Mean anomaly
286.9759°
Eccentric anomaly
286.93546°
Mean motion
3.61137 °/min
Orbital period
99.69 mins
BSTAR
0.0010078
Loading maneuver chart data...
Computing Atmospheric mass density...
Loading historical data...
Loading historical data...
Loading historical data...
Loading historical data...
Loading historical data...
Loading historical data...
Loading historical data...

Documentation

Showing up to 5 results
|